Location: Newark
(63.1158°N, 8.1461°E)
Time: 04:32:18
(UTC+00:00)

Envisat - Pass Details

Date: 16 December 2019
Orbit: 764 x 766 km, 98.1° (Epoch: 28 January)

Event Time Altitude Azimuth Distance (km) Brightness Sun altitude
Rises 15:38:46 0° 131° (SE) 3,233 6.1 -9.8°
Reaches altitude 10° 15:41:10 10° 124° (SE) 2,310 5.3 -10.1°
Maximum altitude 15:45:55 41° 55° (NE) 1,108 3.4 -10.5°
Drops below altitude 10° 15:50:41 10° 347° (NNW) 2,321 5.3 -11.0°
Sets 15:53:06 0° 341° (NNW) 3,251 6.1 -11.2°
